FENGYUN 1C DEB, 35242

Orbit data source: Space-Track

FENGYUN 1C DEB, 35242 is space debris in SSO originally from a launch on Mon, 10 May 1999 UTC launched from the Taiyaun Space Center, China (TSC). Fengyun 1C debris stems from the Chinese weather satellite Fengyun-1C, which was intentionally destroyed by a Chinese anti-satellite missile in 2007. This event dramatically increased the amount of space debris, with thousands of trackable fragments posing hazards to satellites and human spaceflight. The Fengyun 1C debris cloud has become a focal point in discussions about space sustainability and the need for international regulations to prevent the creation of new debris.

Loading next visibility...
Identifier
35242, 1999-025DRA
Orbit
SSO
Country
Flag of CNCN / PRC
Related business
Manufacturer
Unknown
Mission
Spacecraft
Bus & Motor
Unknown
Mass
Unknown
Launch date (UTC)
1999-05-10 (27 years ago)
Launch vehicle
Unknown
Launch site
Taiyaun Space Center, China (TSC)
Object type
Payload
Rocket body
Debris
Shape & HBR
Unknown shape, 0.1 m
Radar Cross Section
Medium (>0.1 m² and <1 m²)

Expand to show TLE details & history
Last TLE update: 1 week ago

TLE from 1 week ago
0 FENGYUN 1C DEB
1 35242U 99025DRA 26256.91178072  .00001864  00000-0  21325-2 0  9991
2 35242  99.9638 316.1530 0305975 225.7698 312.1988 13.52954497618476
Epoch: 2026-09-13T21:52Z
TLE epoch observation values (Epoch: 2026-09-13T21:52:57.854Z)
Latitude
4.53968°
Longitude
175.80732°
Altitude
914.733 km
Speed
7.469 km/s
True Right ascension
09h 07m 47s
True Declination
4° 30' 48"
Sunlit
Object was in daylight at epoch
Visualization orbit readout
Latitude
Unknown
Longitude
Unknown
Altitude
Unknown
Speed
Unknown
Apparent Right ascension
Unknown
Apparent Declination
Unknown
Sunlit
N/A
Visualization observer readout
Local Sidereal Time
13:41:10
Azimuth
Unknown
Elevation
Unknown
Doppler factor
Unknown
Orbital elements
Apogee altitude
1,286.265 km
Perigee altitude
831.166 km
Semi-major axis
7,436.852 km
Eccentricity
0.0306
Inclination
99.9638°
RAAN
316.153°
Arg. of periapsis
225.7698°
True anomaly
309.53388°
Mean anomaly
312.1988°
Eccentric anomaly
310.87317°
Mean motion
3.38423 °/min
Orbital period
106.38 mins
BSTAR
0.0021325
Loading maneuver chart data...
Computing Atmospheric mass density...

Documentation

Showing up to 5 results
|